IBE0241 LEMD-SAEZ

Flight info

Callsign IBE0241
Flight time N/A
Altitude 29000
Route VTB N10 HIJ N857 KORNO UN857 TERTO N857 DEREV/N0498F300 N857 GUNET DCT OPADU UN857 BOTNO/N0497F320 UN857 EDVUP/N0495F340 UN857 DAGEL/N0486F360 UN857 TIMVI/N0479F380 UN857 MIMOL DCT PAPIX
Aircraft B742/H-SDFHIRWXY/L

Departure

Time 2026-05-01 11:26
Airport Adolfo Suárez Madrid–Barajas Airport (LEMD)

Arrival

Time N/A
Airport Ezeiza International Airport - Ministro Pistarini (SAEZ)
Time Latitude Longitude Altitude Speed Heading
2026-05-01 11:26 40.61967 -3.77663 4857 ft 199 kts 212°
2026-05-01 11:26 40.60693 -3.78152 4881 ft 194 kts 169°
2026-05-01 11:27 40.59522 -3.77370 4908 ft 191 kts 130°
2026-05-01 11:27 40.58654 -3.76027 4945 ft 193 kts 130°
2026-05-01 11:27 40.57797 -3.74637 4977 ft 197 kts 128°
2026-05-01 11:27 40.56955 -3.73216 5009 ft 201 kts 128°
2026-05-01 11:28 40.56095 -3.71736 5040 ft 206 kts 127°
2026-05-01 11:28 40.55204 -3.70191 5042 ft 214 kts 127°
2026-05-01 11:28 40.54297 -3.68610 5076 ft 221 kts 127°
2026-05-01 11:29 40.52379 -3.65261 5129 ft 239 kts 127°
2026-05-01 11:29 40.51369 -3.63500 5156 ft 248 kts 127°
2026-05-01 11:29 40.49206 -3.59727 5278 ft 267 kts 127°
2026-05-01 11:30 40.48073 -3.57752 5501 ft 272 kts 128°
2026-05-01 11:30 40.46694 -3.56084 5765 ft 272 kts 154°
2026-05-01 11:30 40.44894 -3.55424 6064 ft 271 kts 172°
2026-05-01 11:30 40.43003 -3.55154 6415 ft 271 kts 174°
2026-05-01 11:31 40.41136 -3.54917 6734 ft 273 kts 174°
2026-05-01 11:31 40.39227 -3.54667 7076 ft 274 kts 174°
2026-05-01 11:31 40.37319 -3.54410 7382 ft 276 kts 174°
2026-05-01 11:31 40.35429 -3.54153 7723 ft 276 kts 174°
2026-05-01 11:32 40.33509 -3.53891 8024 ft 278 kts 174°
2026-05-01 11:32 40.31579 -3.53627 8370 ft 279 kts 174°
2026-05-01 11:32 40.29646 -3.53363 8681 ft 280 kts 174°
2026-05-01 11:32 40.27688 -3.53096 8994 ft 281 kts 174°
2026-05-01 11:33 40.25734 -3.52829 9292 ft 283 kts 174°
2026-05-01 11:33 40.23777 -3.52562 9595 ft 285 kts 174°
2026-05-01 11:33 40.21813 -3.52294 9906 ft 286 kts 174°
2026-05-01 11:33 40.19817 -3.52022 10219 ft 287 kts 174°
2026-05-01 11:34 40.17833 -3.51752 10532 ft 287 kts 175°
2026-05-01 11:34 40.15848 -3.51482 10844 ft 288 kts 175°
2026-05-01 11:34 40.13834 -3.51209 11125 ft 290 kts 175°
2026-05-01 11:34 40.11847 -3.50938 11421 ft 290 kts 175°
2026-05-01 11:35 40.09828 -3.50664 11693 ft 292 kts 175°
2026-05-01 11:35 40.07785 -3.50387 11988 ft 293 kts 175°
2026-05-01 11:35 40.05754 -3.50111 12205 ft 297 kts 175°
2026-05-01 11:35 40.03646 -3.49826 12314 ft 305 kts 175°
2026-05-01 11:36 40.01512 -3.49537 12412 ft 314 kts 175°
2026-05-01 11:36 39.99312 -3.49239 12517 ft 323 kts 175°
2026-05-01 11:36 39.97057 -3.48934 12617 ft 332 kts 175°
2026-05-01 11:36 39.94702 -3.48615 12717 ft 342 kts 175°
2026-05-01 11:37 39.92309 -3.48291 12813 ft 352 kts 175°
2026-05-01 11:37 39.89834 -3.47956 12908 ft 363 kts 175°
2026-05-01 11:37 39.87256 -3.47607 13005 ft 375 kts 175°
2026-05-01 11:37 39.84634 -3.47252 13099 ft 386 kts 175°
2026-05-01 11:38 39.81933 -3.46887 13194 ft 398 kts 175°
2026-05-01 11:38 39.79120 -3.46506 13450 ft 405 kts 174°
2026-05-01 11:38 39.76329 -3.46230 13959 ft 403 kts 182°
2026-05-01 11:38 39.73573 -3.46716 14349 ft 403 kts 196°
2026-05-01 11:39 39.70959 -3.48107 14707 ft 405 kts 211°
2026-05-01 11:39 39.68729 -3.50276 15090 ft 406 kts 225°
2026-05-01 11:39 39.66950 -3.53164 15492 ft 407 kts 239°
2026-05-01 11:39 39.65675 -3.56412 15888 ft 408 kts 244°
2026-05-01 11:40 39.64406 -3.59690 16275 ft 410 kts 241°
2026-05-01 11:40 39.62954 -3.62907 16668 ft 411 kts 238°
2026-05-01 11:40 39.61383 -3.65997 17037 ft 414 kts 236°
2026-05-01 11:40 39.59737 -3.69020 17412 ft 416 kts 234°
2026-05-01 11:41 39.58011 -3.72081 17840 ft 416 kts 234°
2026-05-01 11:41 39.56287 -3.75068 18169 ft 419 kts 231°
2026-05-01 11:41 39.54335 -3.77863 18483 ft 422 kts 226°
2026-05-01 11:41 39.52234 -3.80550 18852 ft 424 kts 225°
2026-05-01 11:42 39.50117 -3.83215 19196 ft 427 kts 225°
2026-05-01 11:42 39.47989 -3.85916 19563 ft 428 kts 225°
2026-05-01 11:42 39.45879 -3.88621 19877 ft 431 kts 226°
2026-05-01 11:42 39.43772 -3.91341 20231 ft 432 kts 226°
2026-05-01 11:43 39.41624 -3.94126 20534 ft 435 kts 226°
2026-05-01 11:43 39.39505 -3.96877 20869 ft 437 kts 226°
2026-05-01 11:43 39.37363 -3.99659 21198 ft 438 kts 226°
2026-05-01 11:44 39.33025 -4.05290 21825 ft 441 kts 226°
2026-05-01 11:44 39.30861 -4.08097 22095 ft 444 kts 226°
2026-05-01 11:44 39.28691 -4.10910 22396 ft 445 kts 226°
2026-05-01 11:44 39.26492 -4.13755 22661 ft 447 kts 226°